Regional Weather Roundup
Issued by NWS Albany, NY

Home | Current Version | Previous Version | Text Only | Print | Product List | Glossary On
Versions: 1 2 3 4 5 6 7 8 9 10 11 12 13 14 15 16 17 18 19 20 21 22 23 24 25 26 27 28
000
ASUS41 KALY 210610
RWRALY

NEW YORK STATE HOURLY WEATHER ROUNDUP
NATIONAL WEATHER SERVICE ALBANY NY
100 AM EST TUE NOV 21 2017

NOTE: "FAIR" INDICATES FEW OR NO CLOUDS BELOW 12,000 FEET WITH NO
SIGNIFICANT WEATHER AND/OR NO OBSTRUCTIONS TO VISIBILITY.

NYZ032-033-038>043-046>054-057>066-NYZ062>081-082-084-210700-
EAST


CITY           SKY/WX    TMP DP  RH WIND       PRES   REMARKS
ALBANY         CLEAR     35  25  66 S8        30.03S WCI  29
GLENS FALLS    CLEAR     30  28  92 CALM      30.01S
POUGHKEEPSIE   CLEAR     32  23  69 CALM      30.08S
NEWBURGH       CLEAR     37  25  60 W7        30.08F WCI  32
MONTGOMERY     CLEAR     28  24  85 CALM      30.07S
WHITE PLAINS   CLEAR     39  22  50 VRB5      30.10S
ISLIP          CLEAR     40  28  62 SW8       30.13S WCI  34
NEW YORK CITY  PTCLDY    43  25  49 SW10      30.12F
CENTRAL PARK   CLEAR     43  24  47 W8G23     30.14F
$$

NYZ005>009-017-018-044>046-055-056-210700-
CENTRAL


CITY           SKY/WX    TMP DP  RH WIND       PRES   REMARKS
FULTON         CLEAR     32  25  75 SE5       29.92F WCI  27
SYRACUSE       PTCLDY    33  24  69 S5        29.94S WCI  29
ROME           CLEAR     32  26  78 E7        29.98S WCI  26
ELMIRA         CLEAR     36  24  62 W7        29.97F WCI  30
BINGHAMTON     CLEAR     34  21  59 SW10      29.96S WCI  26
MONTICELLO     CLEAR     27  23  85 CALM      30.05S
$$

NYZ026>034-041>043-087-210700-
NORTH


CITY           SKY/WX    TMP DP  RH WIND       PRES   REMARKS
WATERTOWN      CLEAR     37  28  70 S9        29.88F WCI  30
FORT DRUM      NOT AVBL
OGDENSBURG     FAIR      30  28  95 S6        29.86F WCI  24
MASSENA        CLOUDY    28  26  92 E5        29.91S WCI  23
SARANAC LAKE   CLOUDY    29  28  96 MISG      29.86F
PLATTSBURGH    CLOUDY    28  24  85 S6        29.96F WCI  22
$$

NYZ001>004-010>016-019>021-085-210700-
WEST


CITY           SKY/WX    TMP DP  RH WIND       PRES   REMARKS
NIAGARA FALLS  CLEAR     45  29  53 SW22G32   29.83S
BUFFALO        PTCLDY    38  24  57 S14       29.87S WCI  30
DUNKIRK        CLEAR     40  23  50 S22G29    29.89F WCI  30
JAMESTOWN      CLEAR     35  21  56 S16G26    29.91F WCI  25
WELLSVILLE     CLEAR     38  20  48 SW16G24   29.93F WCI  29
ROCHESTER      PTCLDY    40  26  57 SW15      29.87F WCI  32
PENN YAN       CLEAR     40  23  50 SW21      29.90S WCI  30
$$

             KEY
       WCI = WIND CHILL INDEX
       VSB = VISIBILITY
       HX  = HEAT INDEX
$$




USA.gov is the U.S. government's official web portal to all federal, state and local government web resources and services.